User: anonymous   Login
Location: Columbia
(38.9520°N, 92.3340°W)
Time: 12:13:12
(UTC-06:00)
Language:

Cosmos 1603 - Orbit

View from above orbital plane
View from above orbital plane
View from above satellite
View from above satellite

Ground track
Ground track

The orbit data is extracted from the following two-line orbital elements,

1 15333U 84106A   16342.00724893 -.00000242  00000-0 -10237-3 0  9999
2 15333  71.0253 134.7909 0017914 145.7052 214.5231 14.14048810661095
Epoch (UTC): 07 December 2016 00:10:26
Eccentricity: 0.0017914
inclination: 71.0253°
perigee height: 832 km
apogee height: 858 km
right ascension of ascending node: 134.7909°
argument of perigee: 145.7052°
revolutions per day: 14.14048810
mean anomaly at epoch: 214.5231°
orbit number at epoch: 66109

The dashed part of the orbit path shows where the satellite is in the earth's shadow,  

DLR